Flag for Canada Weather past 2 weeks in Burnaby, British Columbia, Canada

Now
34 °F

Passing clouds.


Feels Like: 29 °F
Forecast: 27 / 47 °F
Wind: 6 mph from East

Location: Vancouver International Air-Port

Current Time: Mar 4, 2015 at 1:35:01 AM

Latest Report: Mar 4, 2015 at 1:00 AM


Visibility: 30 mi

Pressure: 30.28 "Hg

Humidity: 65%

Dew point: 23 °F

Location of BurnabyLocation

Historic Weather in Burnaby — Graph

°F

Burnaby temperature yesterday

Maximum temperature yesterday: 46 °F (at 1:00 PM)
Minimum temperature yesterday: 30 °F (at 7:00 AM)
Average temperature yesterday: 39 °F

Past Weeks' High & Low Weather Summary

 TemperatureHumidityPressure
High54 °F (Feb 18, 12:00 PM)100% (Feb 17, 2:00 AM)30.50 "Hg (Feb 17, 2:00 AM)
Low30 °F (Feb 28, 4:00 AM)29% (Mar 3, 3:00 PM)29.78 "Hg (Feb 27, 7:00 AM)
Average43 °F82%30.24 "Hg
* Reported Midnight between Feb 16 and Feb 17 — Midnight between Mar 3 and Mar 4, Burnaby, Weather by CustomWeather, © 2015

Note: Actual official high and low records may vary slightly from our data, if they occured in-between our weather recording intervals... More about our weather records

Advertising

Burnaby weather history for previous 24 hours

 ConditionsComfort  
Time TempWeatherWind HumidityBarometerVisibility
12:00 AM
Wed, Mar 4
36 °FPassing clouds.2 mph60%30.27 "Hg30 mi
11:00 PM
Tue, Mar 3
36 °FPassing clouds.No wind65%30.26 "Hg30 mi
10:00 PM37 °FPassing clouds.No wind56%30.26 "Hg30 mi
9:00 PM36 °FClear.No wind70%30.25 "Hg30 mi
8:00 PM41 °FPassing clouds.No wind53%30.24 "Hg30 mi
7:00 PM41 °FPassing clouds.2 mph61%30.24 "Hg30 mi
6:00 PM39 °FPassing clouds.6 mph61%30.23 "Hg30 mi
5:00 PM46 °FHigh level clouds.5 mph37%30.24 "Hg30 mi
4:00 PM46 °FHigh level clouds.6 mph34%30.25 "Hg30 mi
3:00 PM46 °FHigh level clouds.5 mph29%30.26 "Hg30 mi
2:00 PM46 °FHigh level clouds.7 mph34%30.26 "Hg30 mi
1:00 PM46 °FPartly sunny.7 mph40%30.28 "Hg30 mi
12:00 PM45 °FPartly sunny.7 mph42%30.29 "Hg30 mi
11:00 AM45 °FPartly sunny.6 mph37%30.29 "Hg30 mi
10:00 AM43 °FPartly sunny.No wind36%30.29 "Hg30 mi
9:00 AM41 °FScattered clouds.3 mph42%30.29 "Hg30 mi
8:00 AM34 °FPassing clouds.2 mph60%30.28 "Hg30 mi
7:00 AM30 °FPartly sunny.3 mph55%30.27 "Hg30 mi
6:00 AM36 °FPassing clouds.7 mph41%30.27 "Hg20 mi
5:00 AM32 °FPassing clouds.8 mph51%30.26 "Hg20 mi
4:00 AM36 °FPassing clouds.7 mph48%30.26 "Hg20 mi
3:00 AM34 °FPassing clouds.5 mph60%30.26 "Hg20 mi
2:00 AM36 °FPassing clouds.3 mph56%30.24 "Hg20 mi
1:00 AM36 °FClear.6 mph60%30.23 "Hg20 mi
Weather by CustomWeather, © 2015

See weather overviewHow to use our weather pages